sat.trackr.live / text

‹ back to catalog

KUIPER-00569

NORAD 69766 · 2026-151D

PAYLOAD ACTIVE UNKNOWN

§ Identity

Operator
Country
US
Launch date
2026-07-02
Launch site
AFETR
Launch vehicle
Mass (kg)
RCS (m²)

External: N2YO · Heavens-Above · Gunter

§ Orbital elements

Epoch: 2026-09-19T07:21:47.742048Z

Period
97.30 min
Inclination
51.8992°
Eccentricity
0.0001092
Mean motion
14.79929813 rev/d
Perigee alt
628.8 km
Apogee alt
630.3 km
Semi-major
7,007.7 km
B*
7.1339e-5
RAAN
236.9541°
Arg perigee
33.9952°
Mean anomaly
326.1080°
Rev number
1,196

§ Raw data

KUIPER-005691 69766U 26151D   26262.30680257  .00000323  00000+0  71339-4 0  99922 69766  51.8992 236.9541 0001092  33.9952 326.1080 14.79929813 11963

JSON: /api/v1/satellites/69766 · /tle

For live sub-satellite position, see the globe view (requires WebGL).

§ Visibility from observer

Set your observer location to see the next 7 days of passes ≥ 10°. The values pass through the URL so the page stays shareable.

No JS? Fill the form by hand. The geolocation button needs JavaScript.